Weather in Pravovostochnoye

Russia / Amur Oblast     50°19′37″N   128°11′25″E
temp.,
°C
wind,
m/s
gust,
m/s
humid.,
%
clouds,
%
prec.,
mm/h
press.,
hPa
HPBL,
m
8 may, sat
sat800:00+8nne6124192 0.0 996468
03:00+6nne7124856 0.0 996404
06:00+5n6125399 0.0 997503
09:00+7n7946100 0.0 997833
12:00+11n6740100 0.0 9971364
15:00+12n673799 0.0 9961964
18:00+12ne5737100 0.0 9971990
21:00+7ene3569100 0.1 999148
9 may, sun
sun900:00+7e3575100 0.1 1000731
03:00+6n5779100 0.1 1000646
06:00+5n6886100 0.0 1002622
09:00+6n6780100 0.1 1003773
12:00+6n5779100 0.1 1004893
15:00+7nnw5677100 0.3 1005986
18:00+8nw5773100 0.0 1006600
21:00+7nw3772100 0.0 1007274
10 may, mon
mon1000:00+7wnw3674100 0.1 1008230
03:00+6wnw367499 0.1 1009188
06:00+6wnw3577100 0.1 1010216
09:00+7nw3475100 0.1 1011274
12:00+8nw2266100 0.0 1012343
15:00+14wnw1348100 0.0 10111343
18:00+14ese1242100 0.0 10111172
21:00+9sse466833 0.0 1013108
11 may, tue
tue1100:00+7s348339 0.0 101459
03:00+6sse33814 0.0 101428
06:00+7sse357981 0.0 1015125
09:00+13sse565039 0.0 1014594
12:00+17sse663492 0.0 10121608
15:00+19sse7832100 0.0 10102205
18:00+18se8113670 0.0 10071670
21:00+13se91659100 0.0 1008595
12 may, wed
wed1200:00+11se101966100 0.0 1006643
03:00+10se111973100 0.1 1004613
06:00+9se101876100 0.6 1002783
09:00+8se91588100 7.8 1002586
12:00+13se9117284 0.1 10011121
15:00+13se91170100 2.1 9981164
18:00+12sse697176 7.0 997328
21:00+9s497514 7.3 999173